QPF
0.01 0.01 0.01 0.04 0.04 0.03 0.04 0.04 0.04 0.04 0.04 0.05 0.05 0.05 0.05 0.06 0.07 0.08 0.10 0.11 0.11 0.12 0.13 0.13 0.13 0.14 0.14 0.15 0.14 0.12 0.10 0.09 0.07 0.05 0.03 0.03 0.04 0.05 0.04 0.05 0.05 0.06 0.06
0.01 0.01 0.02 0.04 0.06 0.05 0.06 0.09 0.06 0.04 0.04 0.04 0.04 0.05 0.06 0.07 0.07 0.07 0.09 0.09 0.10 0.11 0.12 0.13 0.14 0.15 0.15 0.15 0.15 0.15 0.12 0.09 0.08 0.07 0.05 0.05 0.06 0.06 0.06 0.07 0.07 0.08 0.08
0.02 0.02 0.03 0.04 0.07 0.09 0.08 0.09 0.06 0.06 0.08 0.06 0.04 0.05 0.05 0.06 0.08 0.09 0.09 0.07 0.08 0.09 0.09 0.10 0.11 0.13 0.14 0.14 0.14 0.13 0.12 0.11 0.09 0.08 0.06 0.06 0.07 0.06 0.07 0.08 0.09 0.10 0.10
0.04 0.04 0.03 0.04 0.07 0.08 0.08 0.06 0.07 0.06 0.09 0.11 0.06 0.05 0.05 0.05 0.06 0.08 0.09 0.08 0.08 0.08 0.10 0.10 0.10 0.10 0.10 0.11 0.12 0.11 0.11 0.10 0.09 0.08 0.07 0.07 0.10 0.08 0.08 0.09 0.11 0.11 0.12
0.06 0.05 0.04 0.05 0.07 0.07 0.08 0.08 0.07 0.06 0.06 0.08 0.09 0.08 0.08 0.06 0.04 0.05 0.06 0.08 0.09 0.09 0.10 0.10 0.09 0.09 0.09 0.09 0.10 0.10 0.10 0.10 0.09 0.08 0.07 0.08 0.10 0.10 0.09 0.09 0.09 0.09 0.10
0.08 0.07 0.07 0.07 0.07 0.06 0.07 0.08 0.08 0.08 0.07 0.07 0.07 0.08 0.06 0.06 0.06 0.05 0.05 0.07 0.09 0.10 0.10 0.10 0.09 0.09 0.09 0.10 0.10 0.10 0.10 0.09 0.08 0.08 0.06 0.07 0.08 0.08 0.08 0.08 0.07 0.06 0.09
0.04 0.06 0.08 0.08 0.07 0.06 0.06 0.06 0.07 0.06 0.06 0.05 0.05 0.05 0.05 0.06 0.06 0.05 0.06 0.05 0.06 0.07 0.08 0.09 0.09 0.08 0.09 0.09 0.09 0.10 0.09 0.08 0.08 0.09 0.09 0.07 0.06 0.06 0.07 0.08 0.08 0.07 0.07
0.04 0.04 0.06 0.07 0.07 0.05 0.05 0.05 0.05 0.05 0.04 0.05 0.05 0.05 0.05 0.05 0.05 0.05 0.06 0.05 0.05 0.06 0.06 0.07 0.08 0.09 0.10 0.10 0.09 0.08 0.08 0.07 0.08 0.09 0.09 0.08 0.07 0.08 0.08 0.07 0.07 0.07 0.07
0.02 0.03 0.04 0.06 0.06 0.05 0.04 0.05 0.04 0.03 0.03 0.03 0.03 0.03 0.03 0.03 0.03 0.04 0.05 0.05 0.05 0.06 0.06 0.07 0.08 0.09 0.11 0.11 0.10 0.09 0.09 0.08 0.08 0.10 0.12 0.12 0.13 0.13 0.12 0.09 0.08 0.07 0.08
0.02 0.02 0.03 0.04 0.05 0.05 0.04 0.04 0.03 0.02 0.03 0.03 0.03 0.02 0.02 0.02 0.02 0.03 0.04 0.04 0.06 0.07 0.06 0.08 0.09 0.09 0.09 0.09 0.08 0.08 0.08 0.08 0.07 0.08 0.10 0.12 0.11 0.09 0.10 0.09 0.10 0.08 0.07
0.02 0.02 0.02 0.03 0.03 0.04 0.03 0.02 0.02 0.02 0.03 0.03 0.04 0.03 0.02 0.02 0.02 0.02 0.03 0.03 0.05 0.06 0.06 0.07 0.09 0.09 0.07 0.07 0.08 0.06 0.06 0.06 0.06 0.07 0.07 0.08 0.08 0.07 0.07 0.08 0.09 0.09 0.09
0.02 0.03 0.02 0.02 0.02 0.03 0.03 0.02 0.02 0.02 0.03 0.04 0.04 0.04 0.04 0.03 0.04 0.03 0.03 0.04 0.04 0.05 0.06 0.06 0.07 0.07 0.07 0.07 0.08 0.07 0.07 0.07 0.07 0.07 0.07 0.07 0.07 0.07 0.07 0.08 0.08 0.07 0.08
0.03 0.03 0.02 0.02 0.02 0.03 0.04 0.03 0.02 0.03 0.03 0.04 0.05 0.05 0.06 0.06 0.06 0.06 0.06 0.06 0.06 0.05 0.05 0.05 0.05 0.06 0.07 0.07 0.07 0.07 0.07 0.07 0.06 0.06 0.07 0.07 0.07 0.06 0.06 0.06 0.06 0.06 0.06
0.02 0.02 0.03 0.02 0.02 0.03 0.04 0.03 0.04 0.04 0.04 0.04 0.05 0.06 0.06 0.06 0.07 0.07 0.07 0.07 0.07 0.07 0.06 0.05 0.05 0.05 0.06 0.07 0.07 0.06 0.06 0.07 0.08 0.07 0.06 0.06 0.06 0.07 0.07 0.06 0.06 0.05 0.05
0.01 0.01 0.02 0.02 0.02 0.02 0.03 0.04 0.05 0.07 0.07 0.06 0.06 0.06 0.07 0.06 0.06 0.06 0.06 0.07 0.09 0.09 0.08 0.08 0.07 0.07 0.07 0.06 0.07 0.07 0.08 0.09 0.08 0.07 0.06 0.06 0.05 0.06 0.07 0.06 0.05 0.04 0.04
0.01 0.01 0.02 0.02 0.01 0.01 0.02 0.03 0.05 0.07 0.07 0.07 0.06 0.06 0.05 0.05 0.05 0.06 0.06 0.07 0.08 0.09 0.10 0.09 0.08 0.07 0.06 0.06 0.07 0.08 0.08 0.08 0.07 0.07 0.07 0.06 0.06 0.06 0.06 0.05 0.05 0.04 0.03
0.02 0.02 0.02 0.02 0.01 0.01 0.01 0.02 0.03 0.04 0.04 0.05 0.05 0.04 0.05 0.05 0.05 0.05 0.05 0.06 0.07 0.08 0.08 0.08 0.07 0.06 0.06 0.06 0.06 0.06 0.07 0.07 0.07 0.07 0.07 0.06 0.06 0.05 0.05 0.04 0.04 0.03 0.03
0.02 0.02 0.02 0.02 0.01 0.01 0.01 0.02 0.03 0.03 0.03 0.04 0.04 0.04 0.04 0.04 0.04 0.04 0.05 0.05 0.07 0.08 0.07 0.07 0.08 0.07 0.07 0.06 0.06 0.06 0.06 0.07 0.07 0.06 0.05 0.05 0.05 0.05 0.05 0.05 0.04 0.04 0.03
0.02 0.03 0.02 0.02 0.02 0.01 0.01 0.02 0.02 0.02 0.03 0.03 0.03 0.03 0.03 0.04 0.04 0.04 0.04 0.05 0.06 0.07 0.07 0.08 0.08 0.07 0.07 0.07 0.07 0.07 0.07 0.06 0.06 0.05 0.04 0.04 0.05 0.05 0.05 0.04 0.04 0.04 0.04
0.02 0.03 0.02 0.02 0.02 0.01 0.01 0.01 0.02 0.02 0.02 0.03 0.03 0.02 0.03 0.03 0.04 0.04 0.05 0.05 0.06 0.07 0.07 0.08 0.08 0.07 0.07 0.08 0.08 0.07 0.07 0.06 0.06 0.05 0.05 0.04 0.05 0.05 0.05 0.04 0.04 0.04 0.04
0.02 0.02 0.02 0.02 0.01 0.01 0.02 0.02 0.02 0.02 0.02 0.03 0.03 0.04 0.04 0.04 0.04 0.04 0.04 0.05 0.06 0.06 0.07 0.08 0.08 0.07 0.07 0.07 0.07 0.07 0.07 0.07 0.07 0.06 0.05 0.05 0.05 0.05 0.05 0.05 0.05 0.05 0.04
0.03 0.02 0.02 0.02 0.02 0.02 0.02 0.02 0.03 0.03 0.03 0.03 0.04 0.05 0.04 0.03 0.03 0.03 0.04 0.05 0.05 0.05 0.06 0.07 0.08 0.07 0.06 0.07 0.07 0.07 0.07 0.07 0.07 0.06 0.06 0.05 0.05 0.05 0.06 0.06 0.05 0.05 0.04
0.03 0.03 0.03 0.02 0.02 0.03 0.03 0.03 0.03 0.03 0.03 0.04 0.05 0.05 0.05 0.03 0.03 0.03 0.04 0.05 0.05 0.04 0.05 0.07 0.07 0.06 0.06 0.06 0.06 0.06 0.06 0.07 0.07 0.06 0.06 0.06 0.06 0.06 0.05 0.05 0.05 0.04 0.04
0.05 0.04 0.03 0.03 0.03 0.04 0.04 0.05 0.05 0.04 0.05 0.05 0.05 0.06 0.05 0.04 0.03 0.04 0.04 0.04 0.04 0.04 0.05 0.06 0.06 0.05 0.05 0.05 0.05 0.05 0.06 0.07 0.06 0.06 0.06 0.06 0.06 0.06 0.05 0.05 0.05 0.05 0.04
0.04 0.04 0.04 0.04 0.04 0.05 0.05 0.05 0.04 0.04 0.04 0.05 0.05 0.05 0.05 0.04 0.04 0.04 0.04 0.03 0.04 0.04 0.05 0.06 0.05 0.04 0.03 0.04 0.04 0.04 0.05 0.06 0.05 0.05 0.05 0.05 0.04 0.04 0.05 0.05 0.05 0.05 0.04
0.04 0.04 0.04 0.05 0.04 0.04 0.04 0.04 0.03 0.04 0.04 0.05 0.05 0.05 0.05 0.04 0.04 0.04 0.04 0.03 0.03 0.04 0.05 0.05 0.04 0.04 0.03 0.03 0.03 0.03 0.03 0.03 0.04 0.04 0.03 0.03 0.03 0.04 0.04 0.04 0.04 0.04 0.04
MSLP
1009.45 1010.10 1010.69 1011.17 1011.55 1011.81 1011.99 1012.11 1012.20 1012.28 1012.37 1012.45 1012.52 1012.56 1012.55 1012.50 1012.41 1012.31 1012.21 1012.15 1012.12 1012.13 1012.17 1012.20 1012.19 1012.10 1011.90 1011.56 1011.07 1010.46 1009.72 1008.88 1007.98 1007.03 1006.04 1005.05 1004.05 1003.07 1002.12 1001.21 1000.36 999.59 998.91
1008.87 1009.51 1010.09 1010.58 1010.96 1011.25 1011.45 1011.60 1011.73 1011.84 1011.95 1012.04 1012.09 1012.10 1012.05 1011.93 1011.77 1011.58 1011.38 1011.22 1011.11 1011.05 1011.05 1011.07 1011.08 1011.05 1010.93 1010.68 1010.31 1009.78 1009.11 1008.32 1007.42 1006.43 1005.39 1004.30 1003.21 1002.13 1001.10 1000.13 999.24 998.45 997.78
1008.39 1009.01 1009.57 1010.05 1010.43 1010.72 1010.93 1011.10 1011.24 1011.37 1011.47 1011.56 1011.59 1011.57 1011.47 1011.29 1011.06 1010.79 1010.52 1010.28 1010.11 1010.01 1009.98 1010.00 1010.04 1010.05 1009.99 1009.82 1009.51 1009.04 1008.40 1007.61 1006.68 1005.63 1004.51 1003.34 1002.16 1001.01 999.92 998.93 998.05 997.28 996.64
1008.02 1008.61 1009.14 1009.60 1009.96 1010.23 1010.44 1010.60 1010.73 1010.85 1010.94 1011.01 1011.01 1010.95 1010.81 1010.58 1010.29 1009.97 1009.65 1009.38 1009.17 1009.05 1009.01 1009.04 1009.10 1009.14 1009.11 1008.97 1008.67 1008.20 1007.53 1006.69 1005.69 1004.56 1003.34 1002.09 1000.85 999.66 998.57 997.60 996.77 996.08 995.53
1007.74 1008.30 1008.80 1009.21 1009.54 1009.78 1009.96 1010.09 1010.20 1010.29 1010.36 1010.39 1010.36 1010.26 1010.07 1009.81 1009.50 1009.15 1008.82 1008.53 1008.32 1008.20 1008.17 1008.20 1008.26 1008.30 1008.26 1008.09 1007.74 1007.20 1006.46 1005.52 1004.41 1003.18 1001.88 1000.57 999.29 998.11 997.06 996.18 995.46 994.91 994.50
1007.52 1008.04 1008.49 1008.86 1009.13 1009.33 1009.47 1009.57 1009.65 1009.70 1009.73 1009.72 1009.65 1009.51 1009.30 1009.02 1008.69 1008.35 1008.02 1007.75 1007.56 1007.46 1007.44 1007.47 1007.51 1007.51 1007.40 1007.15 1006.70 1006.04 1005.17 1004.10 1002.88 1001.55 1000.19 998.84 997.58 996.45 995.50 994.75 994.20 993.82 993.60
1007.31 1007.78 1008.18 1008.49 1008.72 1008.87 1008.97 1009.03 1009.07 1009.08 1009.07 1009.02 1008.91 1008.74 1008.51 1008.23 1007.91 1007.58 1007.29 1007.05 1006.89 1006.81 1006.79 1006.80 1006.80 1006.72 1006.51 1006.12 1005.53 1004.72 1003.70 1002.51 1001.18 999.78 998.38 997.05 995.85 994.83 994.03 993.45 993.08 992.91 992.90
1007.07 1007.48 1007.82 1008.08 1008.25 1008.37 1008.43 1008.46 1008.46 1008.44 1008.39 1008.30 1008.16 1007.97 1007.73 1007.45 1007.15 1006.87 1006.62 1006.42 1006.30 1006.23 1006.20 1006.17 1006.09 1005.90 1005.56 1005.02 1004.27 1003.31 1002.15 1000.85 999.45 998.02 996.65 995.39 994.30 993.43 992.79 992.40 992.24 992.27 992.45
1006.75 1007.10 1007.37 1007.58 1007.72 1007.81 1007.85 1007.86 1007.84 1007.79 1007.71 1007.59 1007.43 1007.22 1006.98 1006.71 1006.44 1006.20 1005.99 1005.85 1005.75 1005.69 1005.64 1005.55 1005.38 1005.07 1004.59 1003.89 1002.99 1001.89 1000.63 999.26 997.85 996.45 995.16 994.01 993.08 992.38 991.93 991.72 991.74 991.94 992.29
1006.36 1006.64 1006.86 1007.02 1007.14 1007.20 1007.23 1007.23 1007.20 1007.14 1007.04 1006.90 1006.72 1006.50 1006.26 1006.01 1005.77 1005.57 1005.42 1005.31 1005.24 1005.19 1005.11 1004.96 1004.69 1004.26 1003.64 1002.81 1001.78 1000.59 999.27 997.89 996.51 995.21 994.04 993.06 992.30 991.78 991.50 991.46 991.61 991.94 992.39
1005.93 1006.13 1006.30 1006.43 1006.52 1006.58 1006.61 1006.61 1006.57 1006.50 1006.39 1006.23 1006.03 1005.80 1005.56 1005.34 1005.14 1004.98 1004.88 1004.82 1004.78 1004.73 1004.62 1004.41 1004.05 1003.52 1002.78 1001.85 1000.73 999.49 998.16 996.82 995.54 994.36 993.35 992.55 991.98 991.64 991.52 991.59 991.84 992.23 992.72
1005.49 1005.62 1005.73 1005.83 1005.91 1005.97 1006.00 1006.00 1005.96 1005.88 1005.75 1005.57 1005.35 1005.12 1004.89 1004.69 1004.53 1004.43 1004.38 1004.36 1004.36 1004.32 1004.19 1003.94 1003.52 1002.90 1002.09 1001.08 999.92 998.67 997.37 996.11 994.95 993.93 993.10 992.49 992.09 991.90 991.90 992.07 992.36 992.76 993.25
1005.07 1005.14 1005.20 1005.27 1005.34 1005.40 1005.43 1005.43 1005.38 1005.28 1005.12 1004.92 1004.69 1004.46 1004.24 1004.07 1003.95 1003.91 1003.92 1003.96 1004.00 1003.99 1003.86 1003.59 1003.13 1002.46 1001.59 1000.55 999.38 998.15 996.92 995.76 994.73 993.87 993.21 992.77 992.53 992.47 992.56 992.78 993.09 993.47 993.91
1004.71 1004.72 1004.74 1004.78 1004.84 1004.88 1004.91 1004.89 1004.83 1004.70 1004.52 1004.29 1004.04 1003.81 1003.61 1003.47 1003.41 1003.43 1003.52 1003.63 1003.73 1003.75 1003.65 1003.37 1002.89 1002.20 1001.31 1000.26 999.10 997.91 996.75 995.70 994.80 994.08 993.58 993.29 993.18 993.22 993.37 993.62 993.93 994.28 994.67
1004.40 1004.35 1004.34 1004.36 1004.40 1004.43 1004.44 1004.40 1004.31 1004.15 1003.93 1003.68 1003.42 1003.19 1003.01 1002.92 1002.93 1003.02 1003.18 1003.37 1003.53 1003.61 1003.54 1003.28 1002.81 1002.12 1001.23 1000.19 999.05 997.91 996.82 995.86 995.07 994.48 994.10 993.92 993.91 994.03 994.24 994.51 994.82 995.15 995.51
1004.11 1004.03 1004.00 1004.00 1004.02 1004.03 1004.01 1003.95 1003.82 1003.63 1003.38 1003.11 1002.85 1002.63 1002.48 1002.44 1002.52 1002.69 1002.93 1003.20 1003.43 1003.56 1003.54 1003.31 1002.85 1002.17 1001.29 1000.26 999.16 998.06 997.04 996.15 995.45 994.96 994.68 994.59 994.65 994.83 995.09 995.39 995.71 996.04 996.39
1003.81 1003.71 1003.66 1003.65 1003.66 1003.65 1003.61 1003.52 1003.36 1003.14 1002.88 1002.60 1002.34 1002.14 1002.05 1002.06 1002.21 1002.45 1002.77 1003.11 1003.41 1003.59 1003.59 1003.39 1002.95 1002.28 1001.42 1000.42 999.35 998.29 997.33 996.51 995.88 995.46 995.25 995.23 995.36 995.60 995.91 996.24 996.59 996.95 997.32
1003.45 1003.35 1003.30 1003.29 1003.29 1003.27 1003.21 1003.10 1002.93 1002.69 1002.43 1002.16 1001.92 1001.77 1001.72 1001.80 1002.01 1002.33 1002.71 1003.10 1003.43 1003.64 1003.67 1003.48 1003.05 1002.39 1001.55 1000.57 999.54 998.54 997.62 996.87 996.30 995.95 995.81 995.86 996.05 996.34 996.69 997.08 997.47 997.86 998.26
1003.00 1002.91 1002.88 1002.87 1002.88 1002.86 1002.80 1002.68 1002.51 1002.29 1002.04 1001.80 1001.61 1001.51 1001.52 1001.66 1001.93 1002.29 1002.71 1003.13 1003.48 1003.69 1003.72 1003.52 1003.09 1002.45 1001.62 1000.68 999.69 998.74 997.89 997.20 996.71 996.43 996.36 996.47 996.72 997.06 997.47 997.90 998.34 998.77 999.20
1002.46 1002.39 1002.38 1002.39 1002.41 1002.40 1002.35 1002.25 1002.10 1001.91 1001.70 1001.51 1001.39 1001.35 1001.43 1001.62 1001.93 1002.33 1002.76 1003.18 1003.51 1003.70 1003.70 1003.48 1003.04 1002.40 1001.59 1000.69 999.76 998.88 998.11 997.51 997.11 996.91 996.91 997.09 997.40 997.81 998.26 998.74 999.21 999.67 1000.11
1001.81 1001.78 1001.79 1001.83 1001.86 1001.88 1001.85 1001.78 1001.67 1001.53 1001.39 1001.28 1001.23 1001.26 1001.40 1001.65 1001.99 1002.40 1002.82 1003.20 1003.48 1003.62 1003.57 1003.32 1002.86 1002.22 1001.45 1000.60 999.75 998.96 998.29 997.79 997.49 997.39 997.48 997.74 998.11 998.57 999.06 999.57 1000.06 1000.52 1000.96
1001.06 1001.06 1001.10 1001.17 1001.23 1001.27 1001.29 1001.27 1001.21 1001.15 1001.09 1001.06 1001.09 1001.20 1001.40 1001.69 1002.05 1002.44 1002.82 1003.15 1003.37 1003.44 1003.33 1003.04 1002.56 1001.93 1001.20 1000.42 999.66 998.98 998.44 998.06 997.88 997.89 998.07 998.41 998.84 999.34 999.87 1000.39 1000.87 1001.32 1001.72
1000.21 1000.24 1000.31 1000.40 1000.50 1000.58 1000.64 1000.68 1000.70 1000.71 1000.74 1000.81 1000.93 1001.11 1001.37 1001.69 1002.04 1002.41 1002.75 1003.01 1003.15 1003.15 1002.98 1002.65 1002.16 1001.55 1000.88 1000.18 999.53 998.98 998.57 998.33 998.27 998.39 998.68 999.08 999.57 1000.11 1000.65 1001.16 1001.63 1002.05 1002.40
999.24 999.30 999.41 999.53 999.66 999.79 999.91 1000.02 1000.11 1000.22 1000.34 1000.50 1000.70 1000.96 1001.26 1001.60 1001.95 1002.28 1002.56 1002.76 1002.83 1002.76 1002.55 1002.19 1001.71 1001.14 1000.53 999.94 999.41 998.99 998.72 998.62 998.68 998.91 999.28 999.75 1000.28 1000.84 1001.38 1001.88 1002.33 1002.70 1003.00
998.14 998.25 998.39 998.56 998.74 998.92 999.11 999.29 999.47 999.66 999.88 1000.12 1000.41 1000.72 1001.06 1001.41 1001.75 1002.05 1002.28 1002.41 1002.43 1002.31 1002.07 1001.71 1001.25 1000.75 1000.23 999.74 999.34 999.06 998.92 998.94 999.12 999.44 999.87 1000.39 1000.95 1001.52 1002.05 1002.54 1002.95 1003.29 1003.56
996.93 997.08 997.28 997.50 997.74 997.99 998.25 998.52 998.79 999.07 999.38 999.70 1000.05 1000.41 1000.78 1001.14 1001.46 1001.73 1001.92 1002.01 1001.99 1001.85 1001.60 1001.26 1000.86 1000.43 1000.01 999.65 999.37 999.22 999.20 999.33 999.60 999.98 1000.47 1001.01 1001.58 1002.14 1002.66 1003.13 1003.53 1003.85 1004.10
Thickness
5512 5510 5508 5507 5506 5504 5503 5503 5504 5506 5507 5507 5507 5507 5506 5507 5507 5506 5506 5506 5506 5508 5508 5510 5511 5511 5511 5512 5513 5513 5514 5516 5520 5527 5528 5531 5532 5532 5534 5536 5538 5539 5541
5501 5499 5498 5496 5495 5494 5493 5494 5495 5497 5498 5499 5498 5498 5498 5499 5499 5498 5499 5499 5500 5501 5502 5503 5504 5504 5505 5505 5506 5507 5508 5510 5511 5516 5520 5521 5522 5523 5525 5526 5529 5530 5531
5491 5489 5488 5487 5486 5485 5485 5486 5487 5488 5489 5490 5489 5489 5490 5490 5491 5492 5492 5493 5494 5495 5496 5497 5499 5498 5499 5499 5500 5501 5502 5504 5506 5507 5511 5513 5514 5515 5516 5518 5519 5520 5522
5480 5479 5478 5478 5477 5477 5477 5477 5478 5479 5480 5481 5481 5482 5482 5482 5484 5485 5485 5487 5488 5489 5491 5492 5493 5493 5494 5494 5495 5496 5497 5498 5500 5501 5503 5505 5506 5507 5508 5509 5510 5510 5512
5469 5469 5469 5469 5470 5469 5469 5470 5470 5470 5471 5471 5473 5474 5474 5475 5476 5477 5478 5480 5482 5483 5484 5486 5487 5488 5489 5489 5491 5492 5492 5493 5493 5495 5497 5498 5500 5500 5500 5501 5501 5501 5501
5460 5460 5461 5461 5462 5462 5461 5462 5462 5462 5462 5463 5464 5464 5465 5468 5470 5471 5472 5474 5476 5477 5478 5480 5481 5482 5484 5485 5487 5488 5488 5489 5490 5491 5492 5493 5495 5495 5494 5493 5493 5493 5492
5451 5452 5452 5453 5453 5453 5454 5454 5454 5453 5454 5455 5455 5455 5456 5459 5462 5464 5466 5467 5469 5471 5472 5473 5474 5476 5478 5479 5481 5482 5483 5485 5487 5488 5487 5489 5490 5489 5488 5487 5486 5485 5484
5441 5443 5443 5443 5444 5445 5445 5445 5445 5445 5446 5447 5447 5447 5448 5452 5455 5457 5459 5460 5462 5463 5465 5467 5468 5469 5471 5473 5474 5475 5477 5479 5481 5483 5484 5485 5485 5484 5483 5482 5479 5476 5473
5433 5433 5434 5434 5435 5436 5437 5438 5438 5439 5439 5439 5440 5440 5442 5445 5448 5450 5452 5453 5454 5456 5458 5459 5461 5462 5465 5468 5469 5469 5471 5472 5475 5477 5478 5478 5477 5476 5476 5474 5471 5469 5467
5424 5425 5426 5426 5427 5428 5429 5430 5431 5431 5433 5434 5434 5435 5436 5439 5442 5444 5446 5446 5448 5450 5451 5452 5455 5457 5460 5462 5464 5464 5465 5466 5468 5469 5469 5469 5469 5469 5469 5468 5466 5463 5460
5415 5417 5417 5418 5418 5420 5421 5422 5423 5423 5425 5426 5428 5430 5430 5433 5436 5438 5440 5440 5441 5443 5444 5446 5448 5451 5454 5456 5458 5459 5461 5461 5461 5461 5460 5460 5461 5460 5460 5459 5458 5457 5454
5406 5408 5409 5410 5411 5413 5413 5414 5415 5416 5417 5419 5421 5423 5425 5427 5429 5432 5434 5435 5436 5436 5438 5440 5442 5445 5448 5449 5451 5453 5454 5454 5454 5454 5453 5452 5452 5451 5449 5449 5448 5446 5445
5397 5399 5400 5402 5403 5404 5406 5407 5408 5409 5410 5412 5414 5416 5419 5421 5422 5425 5427 5428 5429 5430 5432 5434 5436 5437 5439 5440 5442 5445 5446 5446 5446 5446 5445 5444 5443 5441 5440 5439 5437 5436 5435
5388 5390 5392 5394 5396 5397 5398 5399 5400 5402 5403 5406 5408 5409 5412 5414 5416 5418 5420 5421 5423 5424 5425 5426 5429 5430 5431 5433 5434 5436 5438 5439 5439 5438 5437 5435 5433 5432 5431 5430 5429 5428 5425
5380 5382 5384 5386 5387 5389 5390 5391 5393 5395 5396 5399 5401 5403 5405 5408 5411 5413 5414 5415 5417 5418 5419 5419 5420 5421 5423 5425 5427 5428 5429 5431 5431 5430 5429 5427 5425 5424 5422 5421 5420 5419 5417
5373 5375 5377 5378 5380 5381 5383 5384 5387 5389 5392 5394 5396 5398 5400 5403 5406 5408 5410 5411 5413 5414 5414 5414 5414 5415 5417 5419 5420 5421 5422 5423 5424 5423 5421 5420 5418 5416 5415 5413 5412 5411 5408
5364 5367 5369 5371 5372 5373 5375 5377 5379 5383 5385 5388 5390 5393 5396 5398 5401 5403 5405 5407 5408 5409 5408 5408 5409 5410 5411 5412 5414 5415 5416 5417 5416 5416 5414 5412 5411 5409 5408 5406 5404 5402 5399
5357 5360 5361 5362 5363 5364 5366 5368 5370 5373 5376 5380 5383 5386 5390 5392 5395 5397 5398 5399 5399 5400 5401 5402 5403 5404 5405 5406 5408 5409 5410 5410 5409 5409 5407 5406 5404 5403 5401 5399 5397 5395 5392
5350 5352 5353 5355 5356 5357 5359 5361 5362 5364 5367 5370 5373 5378 5382 5385 5387 5389 5390 5390 5392 5393 5394 5396 5397 5399 5400 5402 5403 5404 5404 5404 5403 5402 5401 5399 5398 5397 5395 5392 5390 5388 5385
5344 5347 5348 5349 5350 5351 5352 5354 5355 5357 5359 5362 5365 5368 5372 5376 5378 5380 5381 5383 5384 5385 5387 5389 5391 5393 5394 5397 5398 5398 5398 5397 5396 5396 5394 5393 5392 5390 5388 5386 5384 5381 5379
5338 5340 5343 5343 5344 5345 5346 5347 5349 5350 5353 5356 5359 5362 5366 5368 5370 5372 5374 5375 5377 5379 5381 5383 5385 5387 5389 5391 5392 5392 5392 5391 5390 5389 5388 5387 5386 5384 5382 5380 5378 5376 5374
5333 5334 5336 5337 5338 5339 5341 5342 5343 5345 5348 5351 5353 5356 5360 5362 5363 5365 5367 5369 5371 5372 5375 5377 5379 5382 5383 5385 5386 5386 5386 5385 5385 5384 5383 5381 5380 5379 5377 5375 5373 5371 5370
5328 5330 5331 5332 5333 5336 5336 5337 5339 5341 5343 5344 5348 5350 5353 5355 5357 5359 5361 5363 5365 5367 5370 5372 5374 5376 5377 5379 5380 5381 5381 5381 5381 5381 5379 5378 5376 5375 5373 5371 5369 5368 5366
5324 5325 5326 5328 5329 5330 5332 5333 5334 5336 5337 5340 5342 5344 5346 5349 5351 5353 5356 5358 5360 5362 5364 5367 5369 5371 5373 5374 5374 5376 5377 5377 5377 5376 5376 5375 5373 5371 5369 5367 5365 5364 5362
5319 5320 5322 5323 5324 5326 5327 5328 5329 5330 5332 5335 5337 5339 5341 5343 5345 5347 5350 5352 5355 5357 5360 5362 5364 5366 5368 5369 5370 5371 5372 5373 5373 5372 5372 5371 5369 5367 5365 5363 5361 5360 5358
5313 5315 5316 5318 5319 5321 5322 5323 5324 5326 5328 5330 5332 5334 5336 5338 5340 5342 5345 5347 5350 5353 5355 5357 5359 5361 5362 5364 5366 5367 5368 5369 5369 5369 5368 5367 5365 5363 5362 5360 5357 5356 5354